Cheyenne, WY

8:05 PM MST on February 20, 2017 (GMT -0700)
Cheyenne

Weather History for KCYS - November, 2012

Change the Weather History Date:

Friday, November 2, 2012

  Actual Average Record
Temperature  
Mean Temperature 45 °F 41 °F  
Max Temperature 57 °F 53 °F 71 °F (1931)
Min Temperature 32 °F 29 °F -7 °F (1991)
Degree Days  
Heating Degree Days 20 24  
Month to date heating degree days 35 48  
Since 1 July heating degree days 837 907  
Cooling Degree Days 0 0  
Month to date cooling degree days 0 0  
Year to date cooling degree days 568 348  
Moisture  
Dew Point 23 °F    
Average Humidity 48    
Maximum Humidity 70    
Minimum Humidity 26    
Precipitation  
Precipitation 0.00 in 0.02 in 0.76 in (1956)
Month to date precipitation 0.00 0.04  
Year to date precipitation 9.56 14.90  
Snow  
Snow 0.00 in 0.20 in 9.90 in (1973)
Month to date snowfall 0.0 0.4  
Since 1 July snowfall 10.2 6.7  
Snow Depth 0.00 in    
Sea Level Pressure  
Sea Level Pressure 29.99 in    
Wind  
Wind Speed 9 mph (NW)    
Max Wind Speed 21 mph    
Max Gust Speed 26 mph    
Visibility 10 miles    
Events      
T = Trace of Precipitation, MM = Missing Value Source: NWS Daily Summary

Daily Weather History Graph

Daily Weather History Graph

Search for Another Location

Airport or City:

Trip Planner

Search our weather history database for the weather conditions in past years. The results will help you decide how hot, cold, wet, or windy it might be!

Date:

Astronomy

Nov. 02, 2012 Rise Set
Actual Time 7:32 AM MDT 5:52 PM MDT
Civil Twilight 7:03 AM MDT 6:21 PM MDT
Nautical Twilight 6:30 AM MDT 6:54 PM MDT
Astronomical Twilight 5:58 AM MDT 7:26 PM MDT
Moon 8:41 PM MDT (11/2) 10:55 AM MDT (11/2)
Length of Visible Light 11h 18m
Length of Day
10h 20m
Waning Gibbous, 87% of the Moon is Illuminated
Nov 2
Waning Gibbous
Nov 6
Last Quarter
Nov 13
New
Nov 20
First Quarter
Nov 28
Full

Hourly Weather History & Observations

Time (MDT) Temp. Windchill Dew Point Humidity Pressure Visibility Wind Dir Wind Speed Gust Speed Precip Events Conditions
12:53 AM 46.0 °F 41.0 °F 19.9 °F 35% 29.84 in 10.0 mi WNW 10.4 mph - N/A   Partly Cloudy
1:53 AM 46.0 °F 41.0 °F 19.9 °F 35% 29.84 in 10.0 mi WNW 10.4 mph - N/A   Clear
2:53 AM 43.0 °F 38.2 °F 21.0 °F 42% 29.88 in 10.0 mi WNW 8.1 mph - N/A   Clear
3:53 AM 46.0 °F 40.2 °F 21.9 °F 39% 29.86 in 10.0 mi WNW 12.7 mph - N/A   Clear
4:53 AM 45.0 °F 39.3 °F 23.0 °F 42% 29.89 in 10.0 mi WNW 11.5 mph - N/A   Clear
5:53 AM 43.0 °F 36.8 °F 21.9 °F 43% 29.95 in 10.0 mi WNW 11.5 mph - N/A   Clear
6:53 AM 39.9 °F 31.8 °F 23.0 °F 51% 29.98 in 10.0 mi West 15.0 mph - N/A   Clear
7:53 AM 37.0 °F 34.5 °F 24.1 °F 59% 30.00 in 10.0 mi NNW 3.5 mph - N/A   Clear
8:53 AM 42.1 °F 36.1 °F 25.0 °F 51% 30.00 in 10.0 mi NW 10.4 mph - N/A   Clear
9:53 AM 48.0 °F - 26.1 °F 42% 29.99 in 10.0 mi North 9.2 mph - 0.00 in   Clear
10:53 AM 48.9 °F - 26.1 °F 41% 30.00 in 10.0 mi NNW 13.8 mph 20.7 mph N/A   Clear
11:53 AM 52.0 °F - 25.0 °F 35% 29.98 in 10.0 mi NNW 17.3 mph 24.2 mph 0.00 in   Clear
12:53 PM 54.0 °F - 23.0 °F 30% 29.95 in 10.0 mi NNW 17.3 mph 26.5 mph N/A   Clear
1:53 PM 54.0 °F - 21.0 °F 28% 29.94 in 10.0 mi NNW 16.1 mph 26.5 mph N/A   Partly Cloudy
2:53 PM 55.0 °F - 21.0 °F 27% 29.95 in 10.0 mi NW 13.8 mph - 0.00 in   Clear
3:53 PM 55.9 °F - 21.0 °F 26% 29.93 in 10.0 mi NNW 16.1 mph 19.6 mph 0.00 in   Clear
4:53 PM 54.0 °F - 19.9 °F 26% 29.95 in 10.0 mi NNW 11.5 mph - 0.00 in   Clear
5:53 PM 50.0 °F - 19.0 °F 29% 30.00 in 10.0 mi NNW 10.4 mph - 0.00 in   Clear
6:53 PM 45.0 °F - 21.9 °F 40% 30.09 in 10.0 mi Calm Calm - N/A   Scattered Clouds
7:53 PM 44.1 °F 41.5 °F 23.0 °F 43% 30.12 in 10.0 mi East 4.6 mph - 0.00 in   Overcast
8:53 PM 44.1 °F 42.5 °F 25.0 °F 47% 30.10 in 10.0 mi WSW 3.5 mph - N/A   Overcast
9:53 PM 42.1 °F - 27.0 °F 55% 30.10 in 10.0 mi Calm Calm - 0.00 in   Mostly Cloudy
10:53 PM 37.0 °F 32.4 °F 28.0 °F 70% 30.14 in 10.0 mi West 5.8 mph - N/A   Clear
11:53 PM 35.1 °F 31.0 °F 26.1 °F 70% 30.13 in 10.0 mi NW 4.6 mph - N/A   Clear